"Pseudo-MPEC" for P110yHs

Created 2020 May 23 12:07:24 UT using Find_Orb

Click here for an explanation of pseudo-MPECs

 
 Astrometry: 
     P110yHs  C2020 05 19tD[@V^u2LD:O^)o:S5sNk78S@:GUAstrometrynuyO;/h=*TiOngF51
     P110yHs  C2020 05 19Qg'*V!2HlJUg?L4t@/MJJ\8B@l1o:*]EK)redacted;(s*f@_S_eF51
     P110yHs  C2020 05 19AY,P`0TvHv=nbf.FclickI-qB6y;R][Mwh2b/FH_,Xn]ZjNRf6xjF51
     P110yHs  C2020 05 22.40929 20 43 16.42 +03 19 21.9    ~5MAb 20.7 GVNEOCPG96
     P110yHs  C2020 05 22.41444 20 43 17.93 +03 19 27.4    ~5MAb 20.5 GVNEOCPG96
     P110yHs  C2020 05 22.41958 20 43 19.42 +03 19 32.4    ~5MAb 20.7 GVNEOCPG96
     P110yHs  C2020 05 22.42475 20 43 20.91 +03 19 37.3    ~5MAb 20.6 GVNEOCPG96
     P110yHs !C2020 05 22CJ24#'fac9^QhereaLI2[no9oDE65D2HlFKsg2\ZJh`K)2N)EcR:673
     P110yHs !C2020 05 22YEd$jmhZfor%6LbEmt\MyJexplanation4JSR6E;B:ugXS2XF8%7673
     P110yHs  C2020 05 23.41198 20 48 18.56 +03 35 59.1    ~5NAM 20.4 GVNEOCPI52
     P110yHs  C2020 05 23.41517 20 48 19.48 +03 36 02.6    ~5NAM 20.1 GVNEOCPI52
     P110yHs  C2020 05 23.42104 20 48 21.23 +03 36 08.4    ~5NAM       VNEOCPI52

Station data:
(673) Table Mountain Observatory, Wrightwood  (N34.381488 W117.682170)
   US/California.  Observer W. M. Owen Jr. 0.61-m f/16 reflector + CCD.
(F51) Pan-STARRS 1, Haleakala  (N20.707235 W156.255910)  US/Hawaii.
   Observers N. Primak, A. Schultz, S. Watters, J. Thiel, T. Goggia. Measurer
   PS1 Science Consortium. 1.8-m Ritchey-Chrétien + CCD.
(G96) Mt. Lemmon Survey  (N32.442754 W110.788720)  US/Arizona.  Observers T.
   A. Pruyne, B. M. Africano, E. J. Christensen, G. A. Farneth, D. C. Fuls,
   A. R. Gibbs, A. D. Grauer, H. Gröller, J. A. Johnson, R. A. Kowalski, S.
   M. Larson, G. J. Leonard, D. Rankin, R. L. Seaman, F. C. Shelly. 1.5-m
   reflector + 10K CCD.
(I52) Steward Observatory, Mt. Lemmon Station  (N32.442547 W110.788920)
   US/Arizona.  Observers T. A. Pruyne, B. M. Africano, E. J. Christensen, G.
   A. Farneth, D. C. Fuls, A. R. Gibbs, A. D. Grauer, H. Gröller, J. A.
   Johnson, R. A. Kowalski, S. M. Larson, G. J. Leonard, D. Rankin, R. L.
   Seaman, F. C. Shelly. 1.0-m reflector + CCD.

Orbital elements:  P110yHs
   Perihelion 2020 Jul 28.925516 +/- 1.72 TT = 22:12:44 (JD 2459059.425516)
Epoch 2020 May 23.0 TT = JDT 2458992.5   Earth MOID: 0.0262   AutoNEOCP
M 334.02723372 +/- 3.8              (J2000 ecliptic)
n   0.38808466 +/- 0.0503           Peri.  213.38499 +/- 2.2
a   1.86145152 +/- 0.161            Node   122.40119 +/- 1.0
e   0.5032126 +/- 0.0394            Incl.   11.78114 +/- 0.28
P   2.54/927.62d           H 20.3   G  0.15   U 10.7  
q 0.92474561 +/- 0.00715    Q 2.79815743 +/- 0.345
From 12 observations 2020 May 19-23; mean residual 0".18
Residuals in arcseconds: 
200519 F51  .02+  .12+    200522 G96  .34+  .14+    200522 673  .08+  .07-    
200519 F51  .09-  .09+    200522 G96  .17+  .03+    200523 I52  .35+  .00     
200519 F51  .02+  .03-    200522 G96  .13-  .21-    200523 I52  .18-  .31+    
200522 G96  .26+  .24-    200522 673  .10-  .04+    200523 I52  .27-  .23+    

Ephemerides (geocentric):
Date (UTC) HH   RA              Dec         delta   r     elong  mag " sig PA
---- -- -- --  -------------   -----------  ------ ------ -----  --- ---- ---
2020 05 23 12  20 48 44.818   +03 37 36.30  .45976 1.2202 105.7 21.0 .456 152
2020 05 23 13  20 48 57.559   +03 38 17.92  .45943 1.2199 105.7 21.0 .457 152
2020 05 23 14  20 49 10.313   +03 38 59.55  .45910 1.2196 105.7 21.0 .457 151
2020 05 23 15  20 49 23.079   +03 39 41.20  .45877 1.2193 105.7 21.0 .457 150
2020 05 23 16  20 49 35.859   +03 40 22.86  .45844 1.2190 105.6 21.0 .457 149
2020 05 23 17  20 49 48.651   +03 41 04.53  .45811 1.2187 105.6 21.0 .457 148
2020 05 23 18  20 50 01.456   +03 41 46.21  .45778 1.2184 105.6 21.0 .457 147
2020 05 23 19  20 50 14.274   +03 42 27.90  .45746 1.2181 105.6 21.0 .457 147
2020 05 23 20  20 50 27.105   +03 43 09.61  .45713 1.2178 105.6 21.0 .458 146
2020 05 23 21  20 50 39.949   +03 43 51.33  .45680 1.2175 105.6 21.0 .458 145
2020 05 23 22  20 50 52.806   +03 44 33.06  .45648 1.2172 105.5 21.0 .458 144
2020 05 23 23  20 51 05.676   +03 45 14.80  .45615 1.2169 105.5 21.0 .458 143
2020 05 24 00  20 51 18.559   +03 45 56.55  .45582 1.2167 105.5 21.0 .458 143
2020 05 24 01  20 51 31.455   +03 46 38.32  .45550 1.2164 105.5 21.0 .458 142
2020 05 24 02  20 51 44.363   +03 47 20.09  .45517 1.2161 105.5 21.0 .458 141
2020 05 24 03  20 51 57.285   +03 48 01.88  .45485 1.2158 105.5 21.0 .458 140
2020 05 24 04  20 52 10.220   +03 48 43.68  .45452 1.2155 105.4 20.9 .458 139
2020 05 24 05  20 52 23.168   +03 49 25.49  .45420 1.2152 105.4 20.9 .458 139
2020 05 24 06  20 52 36.130   +03 50 07.31  .45388 1.2149 105.4 20.9 .458 138
2020 05 24 07  20 52 49.104   +03 50 49.14  .45355 1.2146 105.4 20.9 .458 137
2020 05 24 08  20 53 02.091   +03 51 30.99  .45323 1.2143 105.4 20.9 .458 137
2020 05 24 09  20 53 15.092   +03 52 12.84  .45291 1.2140 105.4 20.9 .458 136
2020 05 24 10  20 53 28.105   +03 52 54.70  .45258 1.2137 105.3 20.9 .457 135
2020 05 24 11  20 53 41.132   +03 53 36.58  .45226 1.2134 105.3 20.9 .457 134
2020 05 24 12  20 53 54.172   +03 54 18.47  .45194 1.2131 105.3 20.9 .456 134
2020 05 24 13  20 54 07.225   +03 55 00.36  .45162 1.2128 105.3 20.9 .456 133
2020 05 24 14  20 54 20.291   +03 55 42.27  .45130 1.2126 105.3 20.9 .455 132
2020 05 24 15  20 54 33.371   +03 56 24.19  .45098 1.2123 105.3 20.9 .454 132
2020 05 24 16  20 54 46.464   +03 57 06.12  .45066 1.2120 105.2 20.9 .453 131
2020 05 24 17  20 54 59.570   +03 57 48.06  .45034 1.2117 105.2 20.9 .452 131
2020 05 24 18  20 55 12.689   +03 58 30.01  .45002 1.2114 105.2 20.9 .450 130
2020 05 24 19  20 55 25.822   +03 59 11.97  .44970 1.2111 105.2 20.9 .449 129
2020 05 24 20  20 55 38.968   +03 59 53.94  .44938 1.2108 105.2 20.9 .447 129
2020 05 24 21  20 55 52.127   +04 00 35.92  .44906 1.2105 105.1 20.9 .446 128
2020 05 24 22  20 56 05.299   +04 01 17.91  .44874 1.2102 105.1 20.9 .444 128
2020 05 24 23  20 56 18.485   +04 01 59.91  .44842 1.2099 105.1 20.9 .441 127
2020 05 25 00  20 56 31.684   +04 02 41.91  .44811 1.2096 105.1 20.9 .439 127
2020 05 25 01  20 56 44.897   +04 03 23.93  .44779 1.2093 105.1 20.9 .436 126
2020 05 25 02  20 56 58.123   +04 04 05.96  .44747 1.2090 105.1 20.9 .434 126
2020 05 25 03  20 57 11.362   +04 04 48.00  .44716 1.2088 105.0 20.9 .431 125
2020 05 25 04  20 57 24.615   +04 05 30.05  .44684 1.2085 105.0 20.9 .427 125
2020 05 25 05  20 57 37.882   +04 06 12.10  .44652 1.2082 105.0 20.9 .424 125
2020 05 25 06  20 57 51.161   +04 06 54.17  .44621 1.2079 105.0 20.9 .420 124
2020 05 25 07  20 58 04.454   +04 07 36.25  .44589 1.2076 105.0 20.9 .416 124
2020 05 25 08  20 58 17.761   +04 08 18.33  .44558 1.2073 104.9 20.9 .412 124
2020 05 25 09  20 58 31.081   +04 09 00.42  .44527 1.2070 104.9 20.9 .408 123
2020 05 25 10  20 58 44.415   +04 09 42.53  .44495 1.2067 104.9 20.9 .403 123
2020 05 25 11  20 58 57.762   +04 10 24.64  .44464 1.2064 104.9 20.9 .398 123